Regional Weather Roundup
Issued by NWS

Home | Current Version | Previous Version | Text Only | Print | Product List | Glossary Off
Versions: 1 2 3 4 5 6 7 8 9 10 11 12 13 14 15 16 17 18 19 20 21 22 23 24 25 26 27 28 29 30 31 32 33 34 35 36 37 38 39 40 41 42 43 44 45 46 47 48 49 50

042
ASUS45 KCYS 010010
RWRWY

WYOMING REGIONAL WEATHER ROUNDUP
NATIONAL WEATHER SERVICE CHEYENNE WY
500 PM MST TUE FEB 28 2017

NOTE:  "FAIR" INDICATES FEW OR NO CLOUDS BELOW 12,000 FEET
WITH NO SIGNIFICANT WEATHER AND/OR OBSTRUCTIONS TO VISIBILITY.

WYZ001-010100-
YELLOWSTONE NATIONAL PARK

CITY           SKY/WX    TMP DP  RH WIND       PRES   REMARKS
LK YELLOWSTONE   N/A     14   7  73 VRB6      29.75R WCI   5
6HR MIN TEMP:  13; 6HR MAX TEMP:  18; 6HR PCP:  0.01;

W YELLOWSTONE  NOT AVBL

$$
WYZ002>013-054>058-071-098>099-010100-
NORTHERN WYOMING

CITY           SKY/WX    TMP DP  RH WIND       PRES   REMARKS
JACKSON        LGT SNOW  21  12  68 S12       29.84R WCI   9
CODY           FAIR      31   7  36 W20G26    29.76R WCI  19
GREYBULL       FAIR      35  12  38 E8        29.75R WCI  29
6HR MIN TEMP:  31; 6HR MAX TEMP:  37;

WORLAND        FAIR      37   5  26 N5        29.76R WCI  33
6HR MIN TEMP:  30; 6HR MAX TEMP:  38;

SHERIDAN       FAIR      35  10  35 W12       29.73R WCI  27
6HR MIN TEMP:  33; 6HR MAX TEMP:  39;

BUFFALO        MOCLDY    32  11  41 W7        29.72R WCI  26
6HR MIN TEMP:  29; 6HR MAX TEMP:  36;

GILLETTE       MOCLDY    35   6  29 NW15      29.71R WCI  25
6HR MIN TEMP:  33; 6HR MAX TEMP:  38;

HULETT         MOCLDY    36  12  38 NW8       29.71R WCI  29
NEWCASTLE      FAIR      32  12  43 W10       29.72R WCI  24

$$
WYZ014>020-022>026-101>103-010100-
CENTRAL WYOMING

CITY           SKY/WX    TMP DP  RH WIND       PRES   REMARKS
BIG PINEY      CLOUDY     8   3  80 NE7       29.86R WCI  -3
6HR MIN TEMP:  -1; 6HR MAX TEMP:  11; 6HR PCP: TRACE;

PINEDALE       LGT SNOW  12   9  85 CALM      29.86R
DUBOIS         FAIR      18   3  53 W25G39    29.72R WCI  -1
LANDER         FAIR      25   8  48 SW16      29.80R WCI  12
6HR MIN TEMP:  17; 6HR MAX TEMP:  29;

RIVERTON       PTSUNNY   27   7  42 W13       29.79R WCI  16
6HR MIN TEMP:  21; 6HR MAX TEMP:  30;

CASPER         FAIR      25  11  55 W20       29.76R WCI  11
6HR MIN TEMP:  22; 6HR MAX TEMP:  29;

DOUGLAS        FAIR      26  12  55 W20G26    29.76R WCI  12
6HR MIN TEMP:  25; 6HR MAX TEMP:  30;


$$
WYZ021-027>030-104>119-010100-
SOUTHERN WYOMING

CITY           SKY/WX    TMP DP  RH WIND       PRES   REMARKS
EVANSTON       MIX PCPN  18  12  77 SW21      29.94R WCI   1
6HR MIN TEMP:  14; 6HR MAX TEMP:  21; 6HR PCP: TRACE;

FORT BRIDGER   MOCLDY    20  13  75 W23G29    29.94R WCI   3
ROCK SPRINGS   FAIR      21  12  68 W22G31    29.89R WCI   5
6HR MIN TEMP:  14; 6HR MAX TEMP:  22; 6HR PCP: TRACE;

DIXON            N/A     23  10  57 W12G22    29.94R WCI  12
RAWLINS        FAIR      19  10  68 W32G38    29.83R WCI  -1
6HR MIN TEMP:  18; 6HR MAX TEMP:  21;

SARATOGA       FAIR      19  10  68 W16       29.85R WCI   5
LARAMIE        FAIR      19   6  57 W26G33    29.77R WCI   1
6HR MIN TEMP:  19; 6HR MAX TEMP:  23;

CHEYENNE       FAIR      26   5  40 W24G35    29.78R WCI  11
6HR MIN TEMP:  26; 6HR MAX TEMP:  32;

TORRINGTON     FAIR      30  12  47 W17G29    29.79R WCI  18
6HR MIN TEMP:  25; 6HR MAX TEMP:  33;

PINE BLUFFS    FAIR      32   5  32 W23G41    29.79R WCI  19

$$




USA.gov is the U.S. government's official web portal to all federal, state and local government web resources and services.